This is the latest recevied weather packets stored in our database for station/object VK2EHQ. If no packets are shown the sender has not sent any weather packets the latest 10 day(s).
| Time | Temp. | Humidity | Pressure | Rain* | Wind** | Luminosity | Snow |
|---|---|---|---|---|---|---|---|
| 1788657082 | 18.33° C | 44% | 1017.2 hPa | 0 mm | - | - | - |
| 1788655882 | 18.89° C | 47% | 1017.1 hPa | 0 mm | - | - | - |
| 1788655282 | 18.33° C | 46% | 1017.1 hPa | 0 mm | - | - | - |
| 1788654682 | 17.78° C | 47% | 1017.1 hPa | 0 mm | - | - | - |
| 1788653481 | 17.22° C | 47% | 1017 hPa | 0 mm | - | - | - |
| 1788651081 | 16.67° C | 49% | 1016.7 hPa | 0 mm | - | - | - |
| 1788648081 | 15.56° C | 52% | 1016.3 hPa | 0 mm | - | - | - |
| 1788646881 | 15.56° C | 53% | 1016.1 hPa | 0 mm | - | - | - |
| 1788642680 | 14.44° C | 54% | 1014.7 hPa | 0 mm | - | - | - |
| 1788640280 | 13.89° C | 54% | 1014.3 hPa | 0 mm | - | - | - |
| 1788637879 | 14.44° C | 53% | 1013.9 hPa | 0 mm | - | - | - |
| 1788637279 | 14.44° C | 52% | 1013.6 hPa | 0 mm | - | - | - |
| 1788636679 | 14.44° C | 51% | 1013.5 hPa | 0 mm | - | - | - |
| 1788636079 | 15° C | 50% | 1013.1 hPa | 0 mm | - | - | - |
| 1788635479 | 15° C | 48% | 1012.9 hPa | 0 mm | - | - | - |
| 1788634879 | 15.56° C | 47% | 1012.7 hPa | 0 mm | - | - | - |
| 1788633079 | 15.56° C | 47% | 1012.5 hPa | 0 mm | - | - | - |
| 1788632479 | 16.11° C | 48% | 1012.5 hPa | 0 mm | - | - | - |
| 1788631878 | 16.11° C | 51% | 1011.8 hPa | 0 mm | - | - | - |
| 1788631278 | 16.11° C | 50% | 1011.8 hPa | 0 mm | - | - | - |
| 1788629478 | 16.67° C | 51% | 1012.2 hPa | 0 mm | - | - | - |
| 1788628878 | 17.22° C | 50% | 1012.3 hPa | 0 mm | - | - | - |
| 1788628278 | 17.22° C | 50% | 1012.2 hPa | 0 mm | - | - | - |
| 1788627678 | 17.78° C | 49% | 1011.9 hPa | 0 mm | - | - | - |
| 1788627078 | 17.78° C | 50% | 1011.7 hPa | 0 mm | - | - | - |
* Rain latest hour (hover to see other rain measurements)
** Current wind speed in m/s (hover to see current wind gust speed)